STARLINK-32742, 62605

Orbit data source: Space-Track

STARLINK-32742, 62605 is a payload satellite owned by SpaceX/Seattle (US) in LEO that was launched on Mon, 13 Jan 2025 UTC via an FALCON 9 launch vehicle from the Air Force Eastern Test Range (AFETR). Payload-class satellites include a variety of spacecraft equipped with specific instruments for various scientific and technological missions. These include communications satellites like Starlink; space stations such as the ISS; scientific satellites like the Hubble; Earth observation satellites from companies like Planet Labs, Umbra, and HawkEye 360; GPS; miniature CubeSats for education and research; and military/defense satellites.

Loading next visibility...
Identifier
62605, 2025-008U
Orbit
LEO
Country
Flag of USUS
Related business
Manufacturer
SpaceX/Seattle
Mission
Operational Commercial Communications
Bus & Motor
STARLINK V2M, Unknown motor
Mass
730 kg wet, ~700 kg dry
Launch date (UTC)
2025-01-13 (2 years ago)
Launch vehicle
FALCON 9
Launch site
Air Force Eastern Test Range (AFETR)
Object type
Payload
Rocket body
Debris
Shape & HBR
Box + 2 Pan, 17.7 m
Radar Cross Section
33.884 m², Large (>1 m²)

Expand to show TLE details & history
Last TLE update: 10 hours ago

TLE from 10 hours ago
0 STARLINK-32742
1 62605U 25008U   26257.10706697  .00007854  00000-0  29455-3 0  9994
2 62605  42.9998 293.5557 0000973 266.7338  93.3402 15.27587737 94435
Epoch: 2026-09-14T02:34Z
TLE epoch observation values (Epoch: 2026-09-14T02:34:10.586Z)
Latitude
-0.00003°
Longitude
-98.08055°
Altitude
482.84 km
Speed
7.626 km/s
True Right ascension
19h 34m 13s
True Declination
0° 00' 00"
Sunlit
Object was in full shadow at epoch
Visualization orbit readout
Latitude
Unknown
Longitude
Unknown
Altitude
Unknown
Speed
Unknown
Apparent Right ascension
Unknown
Apparent Declination
Unknown
Sunlit
N/A
Visualization observer readout
Local Sidereal Time
05:19:09
Azimuth
Unknown
Elevation
Unknown
Doppler factor
Unknown
Orbital elements
Apogee altitude
485.639 km
Perigee altitude
484.303 km
Semi-major axis
6,863.108 km
Eccentricity
0.0001
Inclination
42.9998°
RAAN
293.5557°
Arg. of periapsis
266.7338°
True anomaly
93.35133°
Mean anomaly
93.3402°
Eccentric anomaly
93.34577°
Mean motion
3.81735 °/min
Orbital period
94.31 mins
BSTAR
0.00029455
Loading maneuver chart data...
Computing Atmospheric mass density...
Loading historical data...
Loading historical data...
Loading historical data...
Loading historical data...
Loading historical data...
Loading historical data...
Loading historical data...

Documentation

Showing up to 5 results
|